Temp
14 14 13 13 13 13 13 13 13 13 13 14 14 14 16 16 16 16 16 17 16 16 16 16 16 16 16 16 16 16 17 17 17
14 15 14 13 13 13 13 13 13 13 14 14 14 14 15 15 16 16 16 16 16 16 15 15 15 16 16 16 16 16 16 16 17
15 15 14 13 13 13 13 13 14 14 14 14 14 15 15 15 15 15 15 15 15 15 15 15 15 15 15 16 16 16 16 16 16
15 15 14 14 13 13 13 13 14 13 14 14 15 15 15 15 15 15 15 14 15 15 14 14 15 15 15 15 15 15 15 15 15
15 14 14 14 14 13 13 13 14 14 14 14 14 14 14 14 15 15 14 14 14 14 14 14 14 14 15 15 15 15 15 15 15
15 14 14 14 14 14 14 14 14 14 14 14 14 14 14 14 14 14 13 14 14 14 14 14 14 14 15 14 14 14 14 14 14
15 14 14 14 14 14 13 13 13 14 14 14 14 14 13 14 14 14 13 13 14 14 14 14 14 14 14 14 14 14 14 14 14
15 14 14 14 14 14 14 13 13 13 14 14 13 13 13 13 13 13 13 13 14 14 14 14 14 14 14 15 15 14 14 14 14
14 14 14 13 13 13 13 13 13 13 13 13 13 13 13 13 13 13 13 12 13 14 14 13 14 14 14 14 14 14 14 14 14
14 14 14 13 13 13 13 13 13 13 13 13 13 13 13 13 13 13 13 12 12 13 13 13 13 14 14 14 14 13 13 14 14
14 14 13 13 13 12 12 13 13 13 13 13 12 12 13 13 13 12 12 12 12 12 12 13 13 13 13 14 14 13 13 13 13
14 14 13 13 12 12 12 12 12 13 13 13 12 12 12 12 12 12 12 12 12 12 11 12 12 12 13 13 14 14 13 13 13
14 13 13 12 12 12 12 12 12 12 12 13 12 12 12 12 12 12 12 12 11 11 11 12 11 11 12 12 13 13 13 12 12
13 13 13 12 12 12 12 12 12 12 12 12 12 12 12 12 12 12 11 11 11 11 11 11 11 11 11 11 12 12 12 12 12
13 13 13 12 12 12 12 12 12 11 12 12 12 12 12 12 12 12 11 11 11 11 11 11 11 11 11 10 11 11 12 12 12
13 13 12 12 12 11 11 12 11 11 11 12 12 12 12 12 12 11 11 11 11 11 11 11 10 10 10 10 10 10 11 11 12
13 13 12 12 12 11 11 11 11 10 10 10 8 6 11 12 11 11 11 11 11 11 11 11 10 10 10 10 10 10 10 10 11
13 13 12 12 11 11 11 11 11 10 10 10 9 7 7 6 11 11 11 11 11 11 11 10 10 10 10 10 10 9 10 9 10
13 12 12 12 11 11 10 10 10 10 10 9 9 9 8 6 6 10 11 11 11 11 11 11 10 10 10 9 9 9 9 9 9
12 12 12 11 11 11 10 10 10 10 9 9 9 9 8 8 6 5 7 10 11 11 10 11 11 10 10 9 9 9 9 9 9
Height
825 825 825 824 823 823 822 821 820 819 817 816 814 812 810 809 808 808 808 808 808 808 808 807 807 807 807 807 806 806 806 806 806
826 826 826 825 824 824 823 822 821 820 819 817 815 813 811 810 809 809 809 809 809 809 808 807 807 807 806 806 806 806 805 805 805
827 827 827 826 826 825 824 823 822 821 819 818 816 814 813 811 810 810 810 810 810 809 808 807 807 807 807 807 806 806 805 805 805
828 829 828 827 827 826 825 824 822 821 819 817 816 815 814 813 811 810 810 810 810 809 808 807 807 807 807 807 806 805 805 805 804
829 830 829 828 828 826 826 824 822 821 819 818 817 815 815 814 812 811 810 811 810 809 808 807 807 807 806 806 806 806 804 804 803
830 830 830 829 828 827 825 824 823 822 821 819 818 816 815 814 813 812 811 811 810 809 808 807 807 807 807 806 806 805 805 803 803
830 830 830 830 829 827 825 824 823 821 820 819 818 817 816 814 814 813 812 812 811 810 809 808 808 808 807 807 806 805 804 803 803
830 830 830 829 829 827 826 824 823 821 820 819 818 818 817 816 815 814 813 813 812 811 810 809 809 808 808 807 806 805 804 803 802
830 830 830 829 829 828 826 824 823 822 821 819 819 818 817 817 816 814 814 814 813 812 811 811 810 809 808 807 806 805 804 803 802
830 830 830 830 829 829 827 825 823 822 821 821 820 818 818 818 817 816 815 815 814 814 813 812 811 810 809 808 806 804 803 802 801
830 830 830 830 830 829 827 825 824 822 822 821 820 819 818 819 818 817 816 816 815 815 814 813 812 811 809 808 807 804 803 801 800
829 830 830 830 830 829 828 826 825 823 822 821 821 821 819 819 820 819 818 818 816 815 814 814 813 812 810 809 807 805 802 800 798
830 830 830 830 830 829 827 826 825 824 822 820 821 821 820 819 820 820 819 819 818 817 815 814 813 812 811 810 808 805 802 800 799
830 830 830 830 830 829 828 826 825 824 822 820 821 821 821 820 820 820 820 819 819 817 816 815 814 813 812 810 808 806 803 802 801
829 829 829 830 830 829 828 826 825 824 822 821 821 822 822 821 821 820 820 819 819 818 816 815 814 812 811 811 809 807 806 804 802
828 829 829 829 829 829 828 827 826 825 822 821 821 822 823 822 822 821 821 820 819 818 816 814 813 812 812 811 810 808 807 805 804
828 828 829 829 829 829 829 827 826 826 824 823 823 825 824 823 821 821 821 820 819 818 816 814 813 813 812 812 811 809 807 807 805
827 828 828 829 829 829 829 828 827 827 827 826 826 828 829 826 822 821 820 820 818 817 815 814 813 812 812 812 811 809 807 807 806
827 827 828 828 829 829 829 829 829 829 828 828 827 828 829 830 828 821 820 820 817 815 814 813 812 811 811 811 810 809 807 806 805
826 827 828 828 829 829 829 829 829 829 828 828 828 828 828 829 830 829 821 818 817 815 813 811 811 810 810 810 809 809 807 806 804
Wind_Speed
9 9 9 10 10 10 10 11 11 11 11 11 12 11 9 9 6 3 3 3 7 7 8 9 9 9 8 8 7 9 8 8 7
9 10 10 10 10 11 11 12 12 11 11 11 10 11 11 10 8 6 6 4 7 7 8 9 9 8 8 7 7 8 8 9 8
10 11 10 11 11 11 11 12 11 12 12 12 11 10 10 9 7 6 6 7 7 7 7 6 7 7 7 7 7 7 8 8 8
10 11 11 10 10 11 11 12 11 11 11 11 10 10 10 9 8 6 6 8 7 8 7 6 5 5 5 6 7 7 8 8 8
8 9 10 10 11 11 10 10 11 11 10 10 11 10 9 9 8 6 8 8 9 7 5 5 5 5 4 5 7 7 7 8 9
6 6 8 9 10 10 10 10 10 10 9 10 10 10 11 8 6 6 8 10 9 7 6 5 5 5 5 5 6 7 8 9 8
4 4 6 7 9 11 11 11 10 10 11 10 10 10 10 9 6 7 8 10 9 8 7 6 6 6 4 5 6 7 8 8 8
3 4 5 7 10 11 11 10 11 11 11 11 10 11 9 9 7 7 8 10 9 10 9 9 7 8 7 7 7 7 7 8 8
3 5 6 7 9 10 11 11 11 11 10 10 10 10 9 9 8 7 7 9 11 9 10 10 8 7 7 8 8 10 10 9 8
2 4 5 6 9 9 11 11 11 11 11 8 9 10 10 8 9 9 7 8 10 11 10 9 9 9 8 11 10 10 10 8 8
2 3 4 5 8 9 10 11 11 11 11 7 8 9 9 8 9 9 7 6 7 9 9 9 11 11 9 10 13 12 11 11 8
2 2 4 5 7 8 8 9 8 8 9 5 6 6 8 7 8 9 9 8 8 9 9 8 9 11 12 10 11 13 13 11 7
2 2 4 5 7 8 9 10 9 10 11 6 5 5 5 7 6 7 8 8 9 9 9 8 8 10 12 11 12 14 10 9 7
2 3 3 4 5 7 9 10 10 13 12 6 3 5 5 5 5 5 7 8 9 9 9 7 7 8 11 12 11 16 10 8 8
1 2 3 3 4 5 8 9 9 12 14 6 4 3 4 4 4 5 6 8 9 10 11 9 7 7 8 10 13 13 15 13 12
1 1 2 2 4 5 8 8 8 11 14 5 4 3 1 1 2 2 4 7 8 10 12 12 9 7 6 9 11 11 10 14 14
1 1 1 1 3 4 5 8 7 8 13 7 3 3 1 4 2 1 3 7 11 8 10 13 10 7 6 8 10 12 12 13 14
2 1 1 0 1 2 4 6 7 7 7 11 5 2 1 5 3 2 3 4 19 7 7 11 9 7 6 7 10 12 12 12 13
3 1 1 1 0 1 2 5 5 6 6 3 6 4 2 1 4 3 5 8 10 11 6 13 7 7 6 8 11 12 12 12 13
3 2 1 1 1 1 1 2 3 4 4 4 3 2 2 1 1 3 8 20 14 11 13 8 3 5 7 9 10 12 13 14 13
Wind_Direction
68 57 51 48 46 39 34 30 24 21 23 21 17 15 16 14 10 10 22 10 6 359 357 350 343 337 337 341 345 356 330 314 304
65 54 50 46 44 41 38 37 35 30 24 18 21 30 34 33 36 34 27 20 13 3 355 354 352 345 343 342 342 343 338 348 313
61 56 52 47 48 42 40 35 27 24 19 22 19 19 22 22 29 35 33 38 9 354 349 347 351 349 347 343 344 338 336 338 335
65 58 52 50 43 35 33 26 25 20 21 23 21 17 12 16 29 41 44 33 360 345 340 345 345 350 348 345 343 346 344 333 317
67 55 46 42 35 38 32 27 23 21 23 21 18 21 11 15 31 51 46 12 355 351 355 354 347 349 355 350 351 354 352 348 338
61 50 36 35 30 26 26 25 20 23 26 23 22 22 23 30 43 49 37 14 9 11 10 8 4 3 1 5 356 349 349 350 351
61 54 33 28 24 21 22 20 22 25 25 26 29 33 34 40 46 49 39 22 25 25 27 26 22 19 10 357 345 340 336 338 341
67 45 28 23 15 15 19 21 22 23 25 30 36 38 40 41 56 63 47 34 34 39 51 48 48 42 27 7 355 344 338 336 333
39 24 30 20 15 15 19 24 25 27 28 38 44 42 42 47 54 57 53 43 40 35 24 27 27 22 12 1 347 332 317 309 314
16 23 20 25 14 15 21 24 27 30 30 48 49 50 45 58 56 61 53 50 43 34 32 29 24 20 12 16 6 2 1 342 324
27 36 37 28 18 19 19 20 26 31 30 50 54 54 65 74 59 49 48 52 42 38 35 34 33 23 8 356 10 13 3 349 341
41 51 50 31 18 16 16 22 26 34 30 50 63 69 74 69 55 52 52 51 42 35 40 31 28 23 18 7 359 355 358 6 15
57 64 56 31 19 16 19 21 26 26 18 57 82 76 86 76 59 46 45 36 32 27 26 19 20 18 18 13 13 9 360 28 29
61 68 54 30 22 17 21 21 27 16 21 43 97 100 93 79 61 51 33 28 23 18 9 2 358 5 15 17 8 18 24 26 17
71 74 57 33 17 20 19 25 26 17 12 48 72 127 100 86 64 44 34 29 24 20 10 0 353 352 358 14 13 8 19 34 38
109 91 61 39 18 21 21 21 25 25 20 50 72 93 111 37 325 36 32 19 13 13 12 8 356 351 346 356 359 3 3 9 13
136 103 85 39 18 24 19 28 27 25 28 36 51 16 326 356 68 279 339 8 6 354 3 5 3 358 347 356 360 359 3 4 2
166 149 125 118 11 20 25 25 32 28 38 39 52 37 307 329 314 317 321 317 346 343 351 1 1 356 350 350 354 353 353 359 356
187 180 175 191 251 1 23 16 19 18 29 42 41 39 23 20 333 330 332 332 342 338 338 336 345 356 348 345 346 351 351 354 352
197 200 208 233 238 302 350 360 6 7 17 23 17 41 27 91 140 296 320 334 338 346 331 343 332 353 352 349 351 351 351 347 345